Location: Asheville, NC
(35.6000°N, 82.5500°W)
Time: 00:08:00
(UTC-05:00)

AO-73 - Visible Passes

Search period start: 20 January 2018 00:00
Search period end: 30 January 2018 00:00
Orbit: 584 x 664 km, 97.6° (Epoch: 18 January)

Date Brightness Start Highest point End Pass type
(mag) Time Alt. Az. Time Alt. Az. Time Alt. Az.
23 Jan ? 19:03:29 10° NNE 19:03:29 10° NNE 19:03:34 10° NNE visible
24 Jan ? 19:21:52 15° NNE 19:21:52 15° NNE 19:22:44 10° N visible
25 Jan ? 19:40:15 19° N 19:40:15 19° N 19:41:37 10° N visible
26 Jan ? 19:58:36 23° N 19:58:36 23° N 20:00:18 10° N visible
27 Jan ? 18:39:43 10° NE 18:39:43 10° NE 18:40:02 10° NE visible
27 Jan ? 20:16:57 24° NNW 20:16:57 24° NNW 20:18:49 10° NNW visible
28 Jan ? 18:58:03 17° NE 18:58:03 17° NE 19:00:03 10° NNE visible
28 Jan ? 20:35:16 22° NW 20:35:16 22° NW 20:37:08 10° NNW visible
29 Jan ? 19:16:21 26° NE 19:16:21 26° NE 19:19:16 10° NNE visible
29 Jan ? 20:53:34 18° WNW 20:53:34 18° WNW 20:55:12 10° NW visible
